SCP
0 0 0 0 0 0 0 0 0 0 0 0 0 0 0 0 0 0 0 0 0 0 0 0 0 0 0 0 0 0 0 0 0 0 0 0 0 0 0 0 0 0 0 0 0 0 0 0 0 0 0 0 0 0
0 0 0 0 0 0 0 0 0 0 0 0 0 0 0 0 0 0 0 0 0 0 0 0 0 0 0 0 0 0 0 0 0 0 0 0 0 0 0 0 0 0 0 0 0 0 0 0 0 0 0 0 0 0
0 0 0 0 0 0 0 0 0 0 0 0 0 0 0 0 0 0 0 0 0 0 0 0 0 0 0 0 0 0 0 0 0 0 0 0 0 0 0 0 0 0 0 0 0 0 0 0 0 0 0 0 0 0
0 0 0 0 0 0 0 0 0 0 0 0 0 0 0 0 0 0 0 0 0 0 0 0 0 0 0 0 0 0 0 0 0 0 0 0 0 0 0 0 0 0 0 0 0 0 0 0 0 0 0 0 0 0
0 0 0 0 0 0 0 0 0 0 0 0 0 0 0 0 0 0 0 0 0 0 0 0 0 0 0 0 0 0 0 0 0 0 0 0 0 0 0 0 0 0 0 0 0 0 0 0 0 0 0 0 0 0
0 0 0 0 0 0 0 0 0 0 0 0 0 0 0 0 0 0 0 0 0 0 0 0 0 0 0 0 0 0 0 0 0 0 0 0 0 0 0 0 0 0 0 0 0 0 0 0 0 0 0 0 0 0
0 0 0 0 0 0 0 0 0 0 0 0 0 0 0 0 0 0 0 0 0 0 0 0 0 0 0 0 0 0 0 0 0 0 0 0 0 0 0 0 0 0 0 0 0 0 0 0 0 0 0 0 0 0
0 0 0 0 0 0 0 0 0 0 0 0 0 0 0 0 0 0 0 0 0 0 0 0 0 0 0 0 0 0 0 0 0 0 0 0 0 0 0 0 0 0 0 0 0 0 0 0 0 0 0 0 0 0
0 0 0 0 0 0 0 0 0 0 0 0 0 0 0 0 0 0 0 0 0 0 0 0 0 0 0 0 0 0 0 0 0 0 0 0 0 0 0 0 0 0 0 0 0 0 0 0 0 0 0 0 0 0
0 0 0 0 0 0 0 0 0 0 0 0 0 0 0 0 0 0 0 0 0 0 0 0 0 0 0 0 0 0 0 0 0 0 0 0 0 0 0 0 0 0 0 0 0 0 0 0 -0 -0 0 0 0 0
0 0 0 0 0 0 0 0 0 0 0 0 0 0 0 0 0 0 0 0 0 0 0 0 0 0 0 0 0 0 0 0 0 0 0 0 0 0 0 -0 0 0 0 0 0 0 0 0 -0 0 0 0 0 0
0 0 0 0 0 0 0 0 0 0 0 0 0 0 0 0 0 0 0 0 0 0 0 0 0 0 0 0 0 0 0 0 0 0 0 0 0 0 -0 0 0 0 -0 -0 0 0 -0 0 0 0 0 0 0 0
0 0 0 0 0 0 0 0 0 0 0 0 0 0 0 0 0 0 0 0 0 0 0 0 0 0 0 0 0 0 0 0 0 0 0 0 0 0 0 0 -0 -0 -0 0 0 0 0 0 0 0 0 0 0 0
0 0 0 0 0 0 0 0 0 0 0 0 0 0 0 0 0 0 0 0 0 0 0 -0 0 0 0 0 0 0 0 0 0 0 0 0 0 0 0 -0 -0 -0 -0 0 0 0 0 0 -0 0 0 0 0 0
0 0 0 0 0 0 0 0 0 0 0 0 0 0 0 0 0 0 0 0 0 0 0 0 0 0 0 0 0 0 0 0 0 0 0 0 0 0 -0 -0 -0 -0 0 0 0 0 0 -0 0 0 0 0 0 0
0 0 0 0 0 0 0 0 0 0 0 0 0 0 0 0 0 0 0 0 0 0 0 0 0 0 0 0 0 0 0 0 0 0 0 0 -0 -0 -0 -0 -0 -0 0 0 0 0 0 0 -0 0 0 0 0 0
0 0 0 0 0 0 0 0 0 0 0 0 0 0 0 0 0 0 0 0 0 0 0 0 0 0 0 0 0 0 0 0 0 0 -0 -0 -0 -0 -0 -0 -0 -0 -0 0 0 0 0 0 0 0 0 0 -0 0
0 0 0 0 0 0 0 0 0 0 0 0 0 0 0 0 0 0 0 0 0 0 0 0 0 0 0 0 0 0 0 0 -0 0 0 -0 -0 -0 -0 -0 -0 0 0 0 0 0 -0 0 0 0 0 -0 0 0
0 0 0 0 0 0 0 0 0 0 0 0 0 0 0 0 0 0 0 0 0 0 0 0 0 0 0 0 0 0 0 0 0 0 0 0 -0 -0 0 -0 0 0 0 0 0 -0 -0 0 0 0 0 -0 -0 -0
0 0 0 0 0 0 0 0 0 0 0 0 0 0 0 0 0 0 0 0 0 0 0 0 0 0 0 0 0 0 0 -0 -0 0 0 0 -0 0 0 -0 0 0 -0 -0 0 0 -0 0 0 0 0 0 -0 -0
0 0 0 0 0 0 0 0 0 0 0 0 0 0 0 0 0 0 0 0 0 0 0 0 0 0 0 0 0 -0 0 0 0 0 0 0 -0 0 0 -0 0 0 0 0 -0 0 -0 0 0 0 0 0 0 -0
0 0 0 0 0 0 0 0 0 0 0 0 0 0 0 0 0 0 0 0 0 0 0 0 0 0 0 0 0 0 0 -0 -0 -0 -0 0 0 -0 -0 0 0 0 0 0 -0 -0 0 0 0 0 0 0 0 0
0 0 0 0 0 0 0 0 0 0 0 0 0 0 0 0 -0 0 0 0 -0 -0 -0 -0 0 0 0 0 0 0 -0 -0 0 -0 0 0 0 -0 0 0 0 -0 -0 -0 -0 -0 -0 0 -0 -0 -0 0 0 0
0 0 0 0 0 0 0 0 0 0 0 0 0 0 0 0 -0 0 0 0 -0 -0 -0 -0 -0 0 -0 -0 -0 -0 0 0 0 0 0 0 0 0 -0 -0 -0 -0 -0 -0 -0 -0 -0 0 0 -0 -0 -0 -0 -0
0 0 0 0 0 0 0 0 0 0 0 0 0 0 0 -0 0 0 0 0 0 0 -0 -0 -0 -0 -0 -0 0 -0 0 0 0 0 0 0 -0 -0 -0 -0 -0 -0 -0 -0 -0 -0 -0 -0 -0 -0 -0 -0 -0 -0
0 0 0 0 0 0 0 0 0 0 0 0 0 0 0 0 0 0 0 -0 -0 0 0 0 -0 -0 -0 0 0 0 -0 -0 0 0 -0 0 0 0 0 0 0 0 -0 -0 -0 -0 -0 -0 -0 -0 -0 -0 -0 -0
0 0 0 0 0 0 0 0 0 0 0 0 0 0 0 0 0 0 0 0 0 0 0 0 -0 -0 -0 -0 0 0 0 -0 0 0 -0 -0 -0 -0 0 0 0 -0 -0 -0 -0 -0 -0 -0 -0 -0 -0 -0 -0 -0
0 0 0 0 0 0 0 0 0 0 0 0 0 0 0 0 0 0 0 0 0 0 -0 -0 -0 0 0 0 0 0 -0 -0 -0 -0 -0 -0 0 0 0 0 -0 -0 -0 -0 -0 -0 -0 -0 -0 -0 -0 -0 -0 -0
0 0 0 0 0 0 0 0 0 0 0 0 0 0 0 0 0 0 0 0 0 0 0 0 0 0 0 -0 -0 -0 -0 -0 -0 0 -0 -0 -0 0 0 0 0 0 -0 -0 0 -0 0 -0 -0 -0 -0 -0 -0 -0
0 0 0 0 0 0 0 0 0 0 0 0 0 0 0 0 0 0 0 0 0 0 0 0 0 0 0 0 0 0 0 0 0 0 -0 -0 -0 0 0 -0 -0 0 -0 -0 -0 -0 0 0 0 -0 -0 -0 -0 -0
0 0 0 0 0 0 0 0 0 0 0 0 0 0 0 0 0 0 0 0 0 0 0 0 0 0 0 0 0 0 0 0 -0 -0 -0 0 -0 -0 -0 0 0 0 0 -0 0 0 0 -0 -0 -0 -0 0 0 0
0 0 0 0 0 0 0 0 0 0 0 0 0 0 0 0 0 0 0 0 0 0 0 0 0 0 0 0 0 -0 -0 -0 -0 -0 -0 -0 -0 -0 -0 -0 0 0 0 0 0 0 0 0 0 0 0 0 0 0
0 0 0 0 0 0 0 0 0 0 0 0 0 0 0 -0 -0 0 -0 0 0 0 0 -0 -0 0 -0 -0 -0 -0 -0 -0 -0 -0 -0 0 0 0 0 0 0 0 0 0 0 0 0 0 0 0 0 0 0 0
Wind_Speed_500mb
48 46 43 37 33 31 28 27 26 27 28 29 31 31 32 31 29 25 18 21 20 10 33 19 11 14 8 8 4 7 7 6 7 6 4 4 4 3 5 5 2 4 4 3 3 1 8 20 8 6 3 7 3 10
45 43 42 39 35 32 30 28 27 27 27 28 30 29 31 29 26 25 21 25 24 20 27 48 52 47 47 43 18 5 3 3 5 7 1 3 2 2 4 5 4 3 9 5 11 9 9 8 3 4 10 14 10 14
41 40 41 37 35 33 32 30 28 27 29 28 28 26 26 24 26 24 23 28 29 16 33 17 5 10 10 5 23 16 9 8 6 3 9 4 3 6 3 9 3 4 6 2 5 5 7 6 4 8 17 22 23 21
39 38 39 34 33 32 31 31 30 28 29 29 26 22 24 23 25 23 23 23 17 14 8 10 4 26 44 35 19 40 31 9 5 1 1 4 3 10 6 7 7 9 3 5 7 13 17 25 26 32 36 30 32 34
37 36 33 32 32 32 31 30 31 32 33 30 24 20 22 20 20 22 21 10 10 10 8 28 40 11 10 12 16 19 33 43 28 4 2 6 7 3 3 2 6 14 13 8 11 20 15 25 49 44 37 39 36 36
36 33 31 31 31 31 31 31 31 33 33 28 22 19 20 19 16 16 6 3 5 15 13 8 18 13 22 6 20 30 33 32 19 12 10 8 11 10 5 6 13 18 21 32 21 29 30 48 42 38 44 44 44 52
37 34 33 31 31 31 32 30 29 29 28 24 21 18 19 18 14 9 5 5 7 13 8 15 22 11 30 5 4 14 25 17 19 12 12 11 10 14 4 12 25 31 37 35 38 38 38 35 39 42 45 49 62 72
38 36 35 34 33 32 31 29 27 23 22 22 18 16 17 18 15 4 1 1 7 13 8 3 11 17 25 11 3 3 10 17 11 8 5 7 5 6 8 24 21 16 16 19 21 22 34 42 52 62 64 63 64 65
38 36 35 33 33 32 29 28 25 19 19 17 13 13 18 7 4 4 5 9 9 9 4 4 4 7 20 10 7 1 2 0 5 4 7 8 1 8 16 18 14 16 11 22 35 40 46 54 62 71 73 71 63 65
37 35 33 32 31 29 26 21 17 15 14 10 7 6 4 4 4 8 5 3 6 7 9 9 8 7 10 9 6 7 5 2 3 6 2 3 7 36 38 35 26 10 21 32 41 52 54 60 67 70 66 66 65 66
36 35 33 31 29 30 23 22 17 14 11 7 7 5 6 4 4 4 4 4 7 6 11 12 17 6 6 1 4 6 1 2 3 7 3 4 6 8 3 4 6 18 31 41 44 50 53 63 69 67 69 67 68 68
33 33 32 31 29 27 26 27 23 22 14 9 5 6 7 5 5 2 4 3 7 8 10 10 9 15 6 7 2 4 1 3 9 8 4 5 7 6 8 19 26 32 42 48 49 55 57 65 70 70 67 69 63 60
30 31 30 29 28 28 33 31 27 26 17 8 7 5 4 6 1 9 9 6 5 9 13 12 7 7 7 6 2 4 1 9 12 1 6 8 7 14 22 28 33 41 47 51 58 61 65 71 79 69 63 64 60 56
25 28 30 29 31 36 35 33 30 27 18 9 9 5 8 8 8 9 8 7 7 5 18 15 7 5 4 3 2 3 6 2 4 5 5 4 25 36 36 34 41 51 50 55 61 63 68 70 71 68 63 57 55 55
22 21 24 30 37 36 39 34 35 33 17 10 9 9 11 17 14 10 12 17 27 32 15 7 4 3 2 4 6 3 4 7 8 6 5 24 41 41 44 38 47 54 53 58 61 63 69 67 58 59 54 53 44 42
20 24 33 29 39 47 40 36 35 39 10 9 12 6 14 4 11 16 22 24 8 7 10 6 4 1 7 5 5 10 4 7 4 6 29 37 38 46 52 46 52 55 53 59 61 68 66 60 55 53 50 45 33 31
22 32 20 23 44 46 37 39 36 17 13 8 13 21 23 10 13 12 15 3 8 2 5 5 6 11 1 5 6 6 4 6 21 35 39 38 49 51 55 60 57 51 52 54 60 56 57 55 49 44 46 42 31 27
32 20 18 32 44 42 51 32 17 14 11 21 13 16 28 22 20 22 22 16 9 6 7 6 4 4 7 5 4 7 13 27 29 40 48 46 49 56 60 51 42 40 41 46 49 53 56 51 43 38 33 32 28 19
26 25 31 40 48 33 15 19 12 8 24 11 26 37 34 25 33 36 37 34 30 22 10 6 7 8 8 14 14 15 12 19 34 43 45 46 49 48 38 33 31 29 30 43 49 50 52 48 40 39 40 35 22 12
30 28 26 39 51 11 9 7 19 9 10 11 17 22 18 21 31 32 33 32 34 20 15 9 11 17 12 17 19 21 38 43 46 54 58 50 46 30 28 30 24 26 33 39 45 49 49 47 39 40 37 23 6 6
22 33 51 55 30 12 11 13 15 11 9 12 13 17 12 21 32 37 42 41 31 19 16 33 44 51 49 48 44 44 45 43 47 47 48 51 33 23 23 25 22 24 31 38 47 50 46 44 37 34 31 27 22 20
35 50 47 34 9 7 4 11 6 6 9 9 8 11 11 10 14 16 18 25 19 45 53 56 60 55 47 52 52 46 42 41 39 40 42 24 20 22 18 17 18 22 25 32 38 43 46 42 36 37 28 30 22 16
39 42 14 6 3 6 4 9 8 7 5 5 4 5 8 9 7 8 7 11 14 24 33 48 52 50 49 41 39 39 39 36 33 35 9 9 16 15 11 11 17 22 25 30 30 33 43 42 42 48 57 56 48 49
37 13 11 13 11 7 7 7 8 6 6 5 5 5 7 9 9 7 5 8 11 13 10 9 15 28 35 37 32 31 29 27 22 10 7 11 10 17 18 21 24 28 29 28 34 39 42 55 63 68 75 81 80 78
9 8 7 8 10 6 6 5 7 5 5 4 4 6 2 5 3 5 5 5 7 13 8 1 2 6 18 17 14 3 15 34 23 26 21 15 22 29 29 30 32 33 30 38 42 43 51 58 67 71 76 81 85 87
4 9 13 10 6 7 6 4 7 7 6 6 5 7 5 3 3 6 4 12 14 10 7 3 10 8 23 22 16 24 32 33 31 31 27 25 25 27 29 32 37 41 39 41 44 45 47 48 52 56 59 63 67 68
1 5 7 9 5 6 8 7 8 5 6 2 4 6 5 3 5 6 7 6 13 22 28 37 45 48 49 48 35 20 25 31 29 25 25 22 21 20 21 22 24 29 36 36 36 37 38 38 42 44 46 50 57 60
5 3 6 7 5 7 5 5 2 3 2 2 3 2 3 3 4 11 11 25 51 36 35 34 24 19 18 13 20 29 38 31 28 26 27 26 22 18 20 26 30 32 28 27 28 29 30 35 37 39 40 42 45 49
5 4 5 5 7 8 8 6 4 3 3 7 4 4 5 5 7 23 31 33 30 18 13 12 16 20 25 32 33 35 31 34 33 26 22 20 16 12 13 21 24 22 20 18 19 21 23 26 30 35 38 39 39 37
5 8 4 5 5 5 4 5 3 7 9 7 6 5 4 5 17 19 17 14 12 9 9 11 14 15 20 25 25 25 24 22 18 22 21 17 18 14 13 14 17 19 18 18 21 23 23 23 23 25 26 25 24 25
6 8 5 6 3 3 3 5 6 5 7 4 7 6 11 13 18 13 6 8 7 8 7 8 10 7 6 9 13 18 21 19 16 13 11 12 14 18 18 17 14 13 13 15 12 13 17 18 17 16 15 17 20 19
5 7 3 3 3 6 12 8 5 5 5 6 9 8 8 10 9 10 21 13 19 16 14 12 11 13 12 9 11 19 15 15 17 12 9 15 17 14 12 14 13 11 10 14 11 5 5 5 10 12 12 12 10 10
3 4 3 3 4 6 6 4 2 2 5 4 4 2 7 8 7 11 17 14 11 26 24 17 8 15 15 13 11 13 16 14 15 15 12 17 20 21 23 24 24 18 18 18 17 14 12 15 12 11 11 9 8 9
Wind_Direction_500mb
280 278 275 275 279 279 284 293 302 313 323 331 336 338 341 343 345 350 341 338 343 287 290 263 242 228 248 249 198 313 1 355 28 64 134 218 188 277 344 276 230 166 115 231 103 219 251 346 360 118 266 333 338 310
276 276 274 269 271 270 272 281 291 300 309 319 325 329 333 334 340 337 339 331 323 290 278 290 285 273 267 266 276 269 252 243 193 94 188 122 307 18 146 285 348 277 178 202 173 224 263 314 51 42 3 346 342 323
273 272 272 268 263 266 268 272 280 291 300 310 315 317 323 326 332 332 331 332 338 313 304 300 326 196 340 354 238 223 244 233 201 152 152 146 257 132 216 245 258 265 170 174 24 266 226 167 118 16 339 324 325 325
269 269 269 265 258 262 265 269 274 281 291 301 305 308 318 322 327 330 330 328 343 324 313 292 296 293 288 283 268 224 223 166 66 257 166 127 186 189 222 244 192 214 163 194 257 275 250 265 250 289 302 298 294 294
266 268 267 262 258 258 261 265 271 276 284 294 292 295 310 316 317 319 322 322 345 353 292 290 313 9 325 254 233 218 221 229 255 271 142 227 223 161 222 31 256 209 206 173 233 241 227 272 301 295 286 292 285 289
262 263 262 260 258 259 263 265 265 269 279 282 282 282 297 306 315 326 303 306 329 351 323 315 316 311 350 273 229 230 223 227 218 203 211 221 230 202 207 233 250 237 257 270 240 287 280 290 288 281 281 283 281 286
259 258 258 258 258 260 262 263 263 267 276 278 269 267 287 303 305 295 281 308 303 328 311 304 317 314 354 38 158 189 205 204 220 218 216 226 233 192 185 259 267 279 280 275 278 282 284 286 287 297 291 284 287 291
255 255 255 257 258 258 259 260 254 255 267 271 258 268 289 298 302 270 197 350 282 266 287 310 282 321 5 1 44 129 190 206 222 233 220 213 172 199 264 249 283 306 304 300 304 295 290 295 294 297 300 298 297 295
251 252 252 253 255 256 256 248 242 248 264 262 256 276 297 269 176 209 238 278 234 236 271 214 254 277 348 9 339 18 214 104 254 217 240 154 195 223 237 266 285 314 299 303 305 301 301 304 309 311 309 304 294 289
247 248 250 251 252 253 249 235 220 237 254 261 255 252 211 181 218 288 286 216 215 212 226 242 237 263 318 331 333 352 4 33 325 259 156 159 254 256 259 267 277 272 309 312 307 307 313 312 315 313 311 306 298 293
242 244 245 245 243 242 229 208 200 218 214 243 216 198 179 206 250 240 249 207 192 231 220 238 231 249 247 158 276 17 319 6 353 273 135 239 275 259 241 190 259 297 311 313 306 305 308 314 313 312 305 302 300 297
243 244 242 240 233 225 206 196 198 205 186 203 190 184 188 216 223 204 242 238 204 234 208 206 247 226 237 222 252 355 105 33 249 326 269 274 260 277 263 293 299 305 311 315 313 310 310 318 326 317 311 305 300 301
244 241 237 231 219 207 192 191 202 204 192 194 207 193 193 182 286 211 210 231 243 213 211 198 227 229 191 214 85 66 100 237 320 317 235 228 282 320 324 316 317 321 319 317 316 316 314 316 320 320 314 308 309 313
244 239 233 225 212 198 190 198 202 201 193 208 183 222 182 198 235 205 200 206 237 242 351 275 257 210 189 112 51 288 236 23 292 255 245 276 344 335 331 326 322 322 322 320 322 324 326 327 318 319 319 319 320 316
250 239 233 220 203 194 192 199 205 196 195 207 204 221 213 231 245 256 270 271 271 289 278 192 215 194 231 185 197 261 235 242 218 240 245 328 332 339 334 324 323 323 321 323 327 325 324 325 330 330 330 328 321 315
251 243 232 220 201 190 188 205 197 201 204 222 230 242 225 227 273 251 260 268 292 239 199 216 116 87 246 218 172 215 201 239 283 240 310 323 329 336 338 323 320 323 320 324 326 325 323 323 321 320 321 330 329 324
226 236 244 229 190 179 201 194 190 193 211 225 245 233 243 264 243 246 278 285 352 209 217 169 202 222 127 240 226 211 193 226 275 304 324 327 325 328 325 321 318 319 324 329 329 332 329 328 326 320 319 324 329 332
225 228 206 184 174 186 191 184 182 197 222 235 239 248 230 232 242 248 246 265 241 234 212 219 189 188 234 243 258 219 253 285 302 310 316 320 325 326 321 319 322 323 332 342 340 337 340 342 336 332 324 322 322 311
225 197 192 188 195 171 161 181 185 216 229 239 242 254 257 257 256 259 257 256 251 258 262 210 218 204 223 224 221 226 243 292 324 333 325 325 331 329 329 332 330 331 344 349 350 352 351 349 341 345 344 323 304 312
193 203 202 201 192 139 155 173 182 239 230 226 237 244 241 250 268 266 259 248 241 231 209 218 207 224 226 256 237 280 298 315 317 317 320 326 335 333 343 344 341 343 346 350 2 3 1 0 356 351 343 352 157 109
179 201 199 181 176 189 203 185 193 217 228 236 263 237 254 256 259 256 250 245 235 222 229 237 246 248 247 255 266 283 293 294 304 309 309 313 325 333 342 347 345 348 357 6 11 11 12 18 28 41 30 48 73 78
168 173 169 165 177 184 220 201 215 219 222 248 246 228 251 254 243 236 228 205 230 238 239 245 245 243 245 252 264 268 284 292 292 300 306 304 320 336 336 345 354 3 12 15 18 16 20 40 46 56 60 71 94 106
167 165 126 110 143 200 224 206 223 224 210 239 223 227 233 227 238 208 237 228 246 260 258 255 256 252 250 261 263 266 276 284 286 299 282 328 338 353 8 33 25 27 30 34 33 29 39 54 63 71 76 77 82 88
152 139 164 188 206 220 213 218 220 239 246 243 220 263 247 220 205 218 246 255 254 298 303 296 237 232 238 249 258 266 265 265 272 158 58 19 62 79 77 66 50 46 46 59 62 59 64 71 73 73 74 75 74 75
154 186 187 198 200 219 219 208 200 210 242 237 260 252 277 218 224 219 235 272 307 313 300 68 99 225 222 200 174 229 136 114 105 93 58 83 100 96 86 73 63 63 76 86 79 76 77 77 77 76 77 80 81 82
158 187 180 202 195 196 225 228 193 219 213 244 248 315 337 354 283 260 286 307 320 7 73 309 302 147 145 157 173 152 149 143 128 123 121 112 100 88 86 86 83 81 86 84 85 85 84 79 76 77 79 80 81 83
25 237 210 218 237 264 272 260 230 229 259 300 323 337 12 326 274 252 309 5 57 108 109 104 106 108 110 111 120 140 153 153 140 131 124 115 99 83 76 85 96 98 92 90 87 81 78 82 84 82 85 87 84 84
255 269 195 180 194 267 280 278 230 229 268 331 320 302 256 204 291 6 68 103 119 120 111 107 95 74 56 83 108 126 136 142 153 151 131 119 107 97 96 93 98 108 103 96 88 84 84 85 82 80 83 85 91 89
262 248 224 234 216 227 229 221 242 266 232 208 206 243 276 331 21 80 99 133 149 134 105 85 77 97 124 122 120 132 140 141 143 145 149 151 159 149 125 98 99 104 102 88 79 86 87 95 87 90 91 93 94 98
267 200 219 203 201 236 245 205 259 247 271 284 317 327 329 85 117 130 142 147 147 142 124 111 102 115 155 157 150 152 154 162 153 119 128 159 169 173 177 152 122 116 125 116 105 96 92 94 100 99 99 99 98 96
277 207 247 227 272 339 254 221 209 252 285 290 340 18 35 65 97 91 105 162 169 173 165 143 144 114 130 166 205 210 208 204 206 196 177 150 144 145 145 150 164 160 147 130 132 125 109 103 101 104 104 97 101 100
233 229 170 232 158 167 155 203 260 296 356 18 22 48 83 77 79 36 34 195 206 220 238 244 240 233 236 262 294 242 241 205 191 205 227 207 200 193 175 170 188 192 209 209 194 207 195 145 153 136 126 128 120 97
297 333 353 42 138 185 179 157 114 65 14 26 17 147 42 48 38 13 8 6 218 228 235 238 249 232 210 214 266 248 231 234 227 223 230 219 223 233 243 249 249 241 231 232 238 237 250 226 220 188 177 168 151 146
Wind_Speed_850mb
48 46 43 37 33 31 28 27 26 27 28 29 31 31 32 31 29 25 18 21 20 10 33 19 11 14 8 8 4 7 7 6 7 6 4 4 4 3 5 5 2 4 4 3 3 1 8 20 8 6 3 7 3 10
45 43 42 39 35 32 30 28 27 27 27 28 30 29 31 29 26 25 21 25 24 20 27 48 52 47 47 43 18 5 3 3 5 7 1 3 2 2 4 5 4 3 9 5 11 9 9 8 3 4 10 14 10 14
41 40 41 37 35 33 32 30 28 27 29 28 28 26 26 24 26 24 23 28 29 16 33 17 5 10 10 5 23 16 9 8 6 3 9 4 3 6 3 9 3 4 6 2 5 5 7 6 4 8 17 22 23 21
39 38 39 34 33 32 31 31 30 28 29 29 26 22 24 23 25 23 23 23 17 14 8 10 4 26 44 35 19 40 31 9 5 1 1 4 3 10 6 7 7 9 3 5 7 13 17 25 26 32 36 30 32 34
37 36 33 32 32 32 31 30 31 32 33 30 24 20 22 20 20 22 21 10 10 10 8 28 40 11 10 12 16 19 33 43 28 4 2 6 7 3 3 2 6 14 13 8 11 20 15 25 49 44 37 39 36 36
36 33 31 31 31 31 31 31 31 33 33 28 22 19 20 19 16 16 6 3 5 15 13 8 18 13 22 6 20 30 33 32 19 12 10 8 11 10 5 6 13 18 21 32 21 29 30 48 42 38 44 44 44 52
37 34 33 31 31 31 32 30 29 29 28 24 21 18 19 18 14 9 5 5 7 13 8 15 22 11 30 5 4 14 25 17 19 12 12 11 10 14 4 12 25 31 37 35 38 38 38 35 39 42 45 49 62 72
38 36 35 34 33 32 31 29 27 23 22 22 18 16 17 18 15 4 1 1 7 13 8 3 11 17 25 11 3 3 10 17 11 8 5 7 5 6 8 24 21 16 16 19 21 22 34 42 52 62 64 63 64 65
38 36 35 33 33 32 29 28 25 19 19 17 13 13 18 7 4 4 5 9 9 9 4 4 4 7 20 10 7 1 2 0 5 4 7 8 1 8 16 18 14 16 11 22 35 40 46 54 62 71 73 71 63 65
37 35 33 32 31 29 26 21 17 15 14 10 7 6 4 4 4 8 5 3 6 7 9 9 8 7 10 9 6 7 5 2 3 6 2 3 7 36 38 35 26 10 21 32 41 52 54 60 67 70 66 66 65 66
36 35 33 31 29 30 23 22 17 14 11 7 7 5 6 4 4 4 4 4 7 6 11 12 17 6 6 1 4 6 1 2 3 7 3 4 6 8 3 4 6 18 31 41 44 50 53 63 69 67 69 67 68 68
33 33 32 31 29 27 26 27 23 22 14 9 5 6 7 5 5 2 4 3 7 8 10 10 9 15 6 7 2 4 1 3 9 8 4 5 7 6 8 19 26 32 42 48 49 55 57 65 70 70 67 69 63 60
30 31 30 29 28 28 33 31 27 26 17 8 7 5 4 6 1 9 9 6 5 9 13 12 7 7 7 6 2 4 1 9 12 1 6 8 7 14 22 28 33 41 47 51 58 61 65 71 79 69 63 64 60 56
25 28 30 29 31 36 35 33 30 27 18 9 9 5 8 8 8 9 8 7 7 5 18 15 7 5 4 3 2 3 6 2 4 5 5 4 25 36 36 34 41 51 50 55 61 63 68 70 71 68 63 57 55 55
22 21 24 30 37 36 39 34 35 33 17 10 9 9 11 17 14 10 12 17 27 32 15 7 4 3 2 4 6 3 4 7 8 6 5 24 41 41 44 38 47 54 53 58 61 63 69 67 58 59 54 53 44 42
20 24 33 29 39 47 40 36 35 39 10 9 12 6 14 4 11 16 22 24 8 7 10 6 4 1 7 5 5 10 4 7 4 6 29 37 38 46 52 46 52 55 53 59 61 68 66 60 55 53 50 45 33 31
22 32 20 23 44 46 37 39 36 17 13 8 13 21 23 10 13 12 15 3 8 2 5 5 6 11 1 5 6 6 4 6 21 35 39 38 49 51 55 60 57 51 52 54 60 56 57 55 49 44 46 42 31 27
32 20 18 32 44 42 51 32 17 14 11 21 13 16 28 22 20 22 22 16 9 6 7 6 4 4 7 5 4 7 13 27 29 40 48 46 49 56 60 51 42 40 41 46 49 53 56 51 43 38 33 32 28 19
26 25 31 40 48 33 15 19 12 8 24 11 26 37 34 25 33 36 37 34 30 22 10 6 7 8 8 14 14 15 12 19 34 43 45 46 49 48 38 33 31 29 30 43 49 50 52 48 40 39 40 35 22 12
30 28 26 39 51 11 9 7 19 9 10 11 17 22 18 21 31 32 33 32 34 20 15 9 11 17 12 17 19 21 38 43 46 54 58 50 46 30 28 30 24 26 33 39 45 49 49 47 39 40 37 23 6 6
22 33 51 55 30 12 11 13 15 11 9 12 13 17 12 21 32 37 42 41 31 19 16 33 44 51 49 48 44 44 45 43 47 47 48 51 33 23 23 25 22 24 31 38 47 50 46 44 37 34 31 27 22 20
35 50 47 34 9 7 4 11 6 6 9 9 8 11 11 10 14 16 18 25 19 45 53 56 60 55 47 52 52 46 42 41 39 40 42 24 20 22 18 17 18 22 25 32 38 43 46 42 36 37 28 30 22 16
39 42 14 6 3 6 4 9 8 7 5 5 4 5 8 9 7 8 7 11 14 24 33 48 52 50 49 41 39 39 39 36 33 35 9 9 16 15 11 11 17 22 25 30 30 33 43 42 42 48 57 56 48 49
37 13 11 13 11 7 7 7 8 6 6 5 5 5 7 9 9 7 5 8 11 13 10 9 15 28 35 37 32 31 29 27 22 10 7 11 10 17 18 21 24 28 29 28 34 39 42 55 63 68 75 81 80 78
9 8 7 8 10 6 6 5 7 5 5 4 4 6 2 5 3 5 5 5 7 13 8 1 2 6 18 17 14 3 15 34 23 26 21 15 22 29 29 30 32 33 30 38 42 43 51 58 67 71 76 81 85 87
4 9 13 10 6 7 6 4 7 7 6 6 5 7 5 3 3 6 4 12 14 10 7 3 10 8 23 22 16 24 32 33 31 31 27 25 25 27 29 32 37 41 39 41 44 45 47 48 52 56 59 63 67 68
1 5 7 9 5 6 8 7 8 5 6 2 4 6 5 3 5 6 7 6 13 22 28 37 45 48 49 48 35 20 25 31 29 25 25 22 21 20 21 22 24 29 36 36 36 37 38 38 42 44 46 50 57 60
5 3 6 7 5 7 5 5 2 3 2 2 3 2 3 3 4 11 11 25 51 36 35 34 24 19 18 13 20 29 38 31 28 26 27 26 22 18 20 26 30 32 28 27 28 29 30 35 37 39 40 42 45 49
5 4 5 5 7 8 8 6 4 3 3 7 4 4 5 5 7 23 31 33 30 18 13 12 16 20 25 32 33 35 31 34 33 26 22 20 16 12 13 21 24 22 20 18 19 21 23 26 30 35 38 39 39 37
5 8 4 5 5 5 4 5 3 7 9 7 6 5 4 5 17 19 17 14 12 9 9 11 14 15 20 25 25 25 24 22 18 22 21 17 18 14 13 14 17 19 18 18 21 23 23 23 23 25 26 25 24 25
6 8 5 6 3 3 3 5 6 5 7 4 7 6 11 13 18 13 6 8 7 8 7 8 10 7 6 9 13 18 21 19 16 13 11 12 14 18 18 17 14 13 13 15 12 13 17 18 17 16 15 17 20 19
5 7 3 3 3 6 12 8 5 5 5 6 9 8 8 10 9 10 21 13 19 16 14 12 11 13 12 9 11 19 15 15 17 12 9 15 17 14 12 14 13 11 10 14 11 5 5 5 10 12 12 12 10 10
3 4 3 3 4 6 6 4 2 2 5 4 4 2 7 8 7 11 17 14 11 26 24 17 8 15 15 13 11 13 16 14 15 15 12 17 20 21 23 24 24 18 18 18 17 14 12 15 12 11 11 9 8 9
Wind_Direction_850mb
280 278 275 275 279 279 284 293 302 313 323 331 336 338 341 343 345 350 341 338 343 287 290 263 242 228 248 249 198 313 1 355 28 64 134 218 188 277 344 276 230 166 115 231 103 219 251 346 360 118 266 333 338 310
276 276 274 269 271 270 272 281 291 300 309 319 325 329 333 334 340 337 339 331 323 290 278 290 285 273 267 266 276 269 252 243 193 94 188 122 307 18 146 285 348 277 178 202 173 224 263 314 51 42 3 346 342 323
273 272 272 268 263 266 268 272 280 291 300 310 315 317 323 326 332 332 331 332 338 313 304 300 326 196 340 354 238 223 244 233 201 152 152 146 257 132 216 245 258 265 170 174 24 266 226 167 118 16 339 324 325 325
269 269 269 265 258 262 265 269 274 281 291 301 305 308 318 322 327 330 330 328 343 324 313 292 296 293 288 283 268 224 223 166 66 257 166 127 186 189 222 244 192 214 163 194 257 275 250 265 250 289 302 298 294 294
266 268 267 262 258 258 261 265 271 276 284 294 292 295 310 316 317 319 322 322 345 353 292 290 313 9 325 254 233 218 221 229 255 271 142 227 223 161 222 31 256 209 206 173 233 241 227 272 301 295 286 292 285 289
262 263 262 260 258 259 263 265 265 269 279 282 282 282 297 306 315 326 303 306 329 351 323 315 316 311 350 273 229 230 223 227 218 203 211 221 230 202 207 233 250 237 257 270 240 287 280 290 288 281 281 283 281 286
259 258 258 258 258 260 262 263 263 267 276 278 269 267 287 303 305 295 281 308 303 328 311 304 317 314 354 38 158 189 205 204 220 218 216 226 233 192 185 259 267 279 280 275 278 282 284 286 287 297 291 284 287 291
255 255 255 257 258 258 259 260 254 255 267 271 258 268 289 298 302 270 197 350 282 266 287 310 282 321 5 1 44 129 190 206 222 233 220 213 172 199 264 249 283 306 304 300 304 295 290 295 294 297 300 298 297 295
251 252 252 253 255 256 256 248 242 248 264 262 256 276 297 269 176 209 238 278 234 236 271 214 254 277 348 9 339 18 214 104 254 217 240 154 195 223 237 266 285 314 299 303 305 301 301 304 309 311 309 304 294 289
247 248 250 251 252 253 249 235 220 237 254 261 255 252 211 181 218 288 286 216 215 212 226 242 237 263 318 331 333 352 4 33 325 259 156 159 254 256 259 267 277 272 309 312 307 307 313 312 315 313 311 306 298 293
242 244 245 245 243 242 229 208 200 218 214 243 216 198 179 206 250 240 249 207 192 231 220 238 231 249 247 158 276 17 319 6 353 273 135 239 275 259 241 190 259 297 311 313 306 305 308 314 313 312 305 302 300 297
243 244 242 240 233 225 206 196 198 205 186 203 190 184 188 216 223 204 242 238 204 234 208 206 247 226 237 222 252 355 105 33 249 326 269 274 260 277 263 293 299 305 311 315 313 310 310 318 326 317 311 305 300 301
244 241 237 231 219 207 192 191 202 204 192 194 207 193 193 182 286 211 210 231 243 213 211 198 227 229 191 214 85 66 100 237 320 317 235 228 282 320 324 316 317 321 319 317 316 316 314 316 320 320 314 308 309 313
244 239 233 225 212 198 190 198 202 201 193 208 183 222 182 198 235 205 200 206 237 242 351 275 257 210 189 112 51 288 236 23 292 255 245 276 344 335 331 326 322 322 322 320 322 324 326 327 318 319 319 319 320 316
250 239 233 220 203 194 192 199 205 196 195 207 204 221 213 231 245 256 270 271 271 289 278 192 215 194 231 185 197 261 235 242 218 240 245 328 332 339 334 324 323 323 321 323 327 325 324 325 330 330 330 328 321 315
251 243 232 220 201 190 188 205 197 201 204 222 230 242 225 227 273 251 260 268 292 239 199 216 116 87 246 218 172 215 201 239 283 240 310 323 329 336 338 323 320 323 320 324 326 325 323 323 321 320 321 330 329 324
226 236 244 229 190 179 201 194 190 193 211 225 245 233 243 264 243 246 278 285 352 209 217 169 202 222 127 240 226 211 193 226 275 304 324 327 325 328 325 321 318 319 324 329 329 332 329 328 326 320 319 324 329 332
225 228 206 184 174 186 191 184 182 197 222 235 239 248 230 232 242 248 246 265 241 234 212 219 189 188 234 243 258 219 253 285 302 310 316 320 325 326 321 319 322 323 332 342 340 337 340 342 336 332 324 322 322 311
225 197 192 188 195 171 161 181 185 216 229 239 242 254 257 257 256 259 257 256 251 258 262 210 218 204 223 224 221 226 243 292 324 333 325 325 331 329 329 332 330 331 344 349 350 352 351 349 341 345 344 323 304 312
193 203 202 201 192 139 155 173 182 239 230 226 237 244 241 250 268 266 259 248 241 231 209 218 207 224 226 256 237 280 298 315 317 317 320 326 335 333 343 344 341 343 346 350 2 3 1 0 356 351 343 352 157 109
179 201 199 181 176 189 203 185 193 217 228 236 263 237 254 256 259 256 250 245 235 222 229 237 246 248 247 255 266 283 293 294 304 309 309 313 325 333 342 347 345 348 357 6 11 11 12 18 28 41 30 48 73 78
168 173 169 165 177 184 220 201 215 219 222 248 246 228 251 254 243 236 228 205 230 238 239 245 245 243 245 252 264 268 284 292 292 300 306 304 320 336 336 345 354 3 12 15 18 16 20 40 46 56 60 71 94 106
167 165 126 110 143 200 224 206 223 224 210 239 223 227 233 227 238 208 237 228 246 260 258 255 256 252 250 261 263 266 276 284 286 299 282 328 338 353 8 33 25 27 30 34 33 29 39 54 63 71 76 77 82 88
152 139 164 188 206 220 213 218 220 239 246 243 220 263 247 220 205 218 246 255 254 298 303 296 237 232 238 249 258 266 265 265 272 158 58 19 62 79 77 66 50 46 46 59 62 59 64 71 73 73 74 75 74 75
154 186 187 198 200 219 219 208 200 210 242 237 260 252 277 218 224 219 235 272 307 313 300 68 99 225 222 200 174 229 136 114 105 93 58 83 100 96 86 73 63 63 76 86 79 76 77 77 77 76 77 80 81 82
158 187 180 202 195 196 225 228 193 219 213 244 248 315 337 354 283 260 286 307 320 7 73 309 302 147 145 157 173 152 149 143 128 123 121 112 100 88 86 86 83 81 86 84 85 85 84 79 76 77 79 80 81 83
25 237 210 218 237 264 272 260 230 229 259 300 323 337 12 326 274 252 309 5 57 108 109 104 106 108 110 111 120 140 153 153 140 131 124 115 99 83 76 85 96 98 92 90 87 81 78 82 84 82 85 87 84 84
255 269 195 180 194 267 280 278 230 229 268 331 320 302 256 204 291 6 68 103 119 120 111 107 95 74 56 83 108 126 136 142 153 151 131 119 107 97 96 93 98 108 103 96 88 84 84 85 82 80 83 85 91 89
262 248 224 234 216 227 229 221 242 266 232 208 206 243 276 331 21 80 99 133 149 134 105 85 77 97 124 122 120 132 140 141 143 145 149 151 159 149 125 98 99 104 102 88 79 86 87 95 87 90 91 93 94 98
267 200 219 203 201 236 245 205 259 247 271 284 317 327 329 85 117 130 142 147 147 142 124 111 102 115 155 157 150 152 154 162 153 119 128 159 169 173 177 152 122 116 125 116 105 96 92 94 100 99 99 99 98 96
277 207 247 227 272 339 254 221 209 252 285 290 340 18 35 65 97 91 105 162 169 173 165 143 144 114 130 166 205 210 208 204 206 196 177 150 144 145 145 150 164 160 147 130 132 125 109 103 101 104 104 97 101 100
233 229 170 232 158 167 155 203 260 296 356 18 22 48 83 77 79 36 34 195 206 220 238 244 240 233 236 262 294 242 241 205 191 205 227 207 200 193 175 170 188 192 209 209 194 207 195 145 153 136 126 128 120 97
297 333 353 42 138 185 179 157 114 65 14 26 17 147 42 48 38 13 8 6 218 228 235 238 249 232 210 214 266 248 231 234 227 223 230 219 223 233 243 249 249 241 231 232 238 237 250 226 220 188 177 168 151 146